Wind_Speed
9 9 9 9 10 11 11 10 11 11 11 11 12 12 12 12 12 12 11 10 9 9 9 9 9 9 9 8 8 8 8 8 8 7 7 7 7 8 8 8 7 7 6
9 9 8 9 10 10 10 10 10 11 12 12 12 12 12 12 12 13 12 11 10 10 9 10 10 10 9 9 9 9 9 9 8 8 8 8 8 8 8 7 7 7 7
9 8 8 8 9 10 10 10 10 10 11 12 12 12 12 12 12 13 13 13 12 11 11 11 11 10 10 9 9 9 8 8 8 8 8 9 8 8 8 8 8 8 8
8 8 8 8 9 10 11 10 10 11 11 11 12 12 13 13 13 13 13 13 13 13 12 12 11 11 10 9 9 9 9 8 7 8 9 9 9 8 8 9 9 8 8
9 8 8 9 9 10 11 10 10 11 11 11 12 12 13 13 14 14 14 14 13 13 12 12 12 12 12 11 10 9 9 9 9 9 9 10 10 10 9 9 8 8 8
10 9 9 9 10 11 11 11 12 12 12 12 13 13 13 14 14 14 14 15 15 14 13 13 13 13 12 11 11 10 10 10 10 11 11 11 11 11 10 10 9 9 8
11 10 10 10 11 12 12 12 13 13 14 14 14 14 14 15 15 15 15 16 15 14 14 14 14 13 13 12 12 11 11 11 11 12 12 12 12 12 11 11 11 10 10
12 11 12 12 13 13 13 14 14 15 16 15 15 15 16 16 16 16 17 17 16 15 15 15 15 14 13 13 13 12 12 12 12 13 12 12 12 13 12 11 12 12 11
13 13 13 13 13 14 14 15 15 16 16 17 16 17 17 17 17 17 17 17 17 17 17 16 16 16 15 14 14 14 13 13 13 13 13 12 13 13 13 13 13 13 12
14 14 14 14 14 15 15 16 16 17 17 17 18 18 18 19 19 19 18 18 18 19 18 17 17 16 16 15 15 15 15 15 15 15 14 14 14 15 15 15 14 14 13
15 16 16 16 16 16 16 16 17 18 18 18 19 19 19 19 20 20 19 20 20 20 20 19 19 18 17 16 16 16 17 17 16 17 17 16 16 16 16 16 16 16 16
16 17 17 17 17 17 17 18 18 19 19 20 20 20 20 20 20 21 20 21 21 21 21 21 20 20 19 18 18 18 18 18 18 18 18 17 17 17 17 18 18 18 18
18 18 17 17 18 18 18 18 19 20 20 21 21 21 21 21 22 22 21 21 22 23 22 22 21 21 20 20 20 20 20 20 20 20 20 20 20 20 19 19 19 19 19
19 19 18 19 19 19 19 19 20 21 22 22 22 23 23 23 24 24 23 23 23 23 23 22 22 22 22 22 22 22 22 22 22 21 21 22 21 21 21 20 20 20 21
20 20 21 21 21 21 22 23 22 23 24 25 25 25 25 26 26 25 25 24 25 24 24 24 23 23 24 23 24 24 23 23 23 23 23 23 23 22 22 22 22 22 22
21 22 22 22 23 24 25 25 26 26 26 26 27 27 27 27 27 26 25 25 26 26 26 25 25 25 25 24 25 25 24 24 25 25 25 24 24 24 24 24 25 24 24
23 24 24 24 25 26 26 27 27 27 28 28 28 28 28 28 28 28 27 27 27 27 27 27 27 27 26 26 26 27 27 27 27 27 26 26 26 26 26 26 26 27 27
25 26 26 26 27 27 28 28 28 28 28 29 28 29 29 29 29 28 28 29 30 29 28 28 28 28 28 28 29 29 29 29 28 28 28 27 27 27 27 27 27 27 28
27 27 27 27 28 28 28 28 28 29 29 29 29 30 29 29 29 30 30 31 31 30 30 29 28 29 29 30 30 30 30 30 30 30 29 28 28 28 29 29 28 29 29
28 28 28 27 28 28 28 29 29 30 30 30 31 30 31 31 31 31 31 31 31 30 30 30 30 30 30 30 30 30 30 30 30 30 30 30 30 30 30 30 30 30 30
28 27 28 28 28 28 29 30 30 30 31 31 31 31 31 31 32 32 32 32 32 31 31 31 31 31 32 32 32 32 32 31 31 31 31 31 31 31 32 32 32 32 33
28 28 28 28 29 29 29 30 31 31 31 31 31 31 31 32 32 32 32 32 32 31 32 32 32 32 33 33 33 33 33 33 32 31 31 31 32 31 32 32 33 33 34
28 29 29 30 30 30 30 31 31 31 31 31 32 31 31 31 32 32 32 32 32 32 32 32 32 32 32 32 32 33 33 33 32 31 32 32 32 32 32 32 33 33 34
29 30 30 31 31 31 31 31 31 31 31 31 31 31 31 32 32 33 33 33 34 34 34 33 33 32 32 32 32 32 32 32 32 32 32 32 31 31 31 32 33 33 33
30 31 31 31 31 31 31 32 32 32 32 32 32 32 32 32 33 33 33 34 35 34 34 34 33 33 33 33 33 33 32 33 33 32 31 32 32 32 32 32 32 32 32
31 31 31 31 31 32 32 32 32 31 32 32 33 33 33 34 35 34 34 34 34 34 34 35 35 34 34 33 33 33 32 33 32 32 31 31 31 32 32 32 33 33 32
Wind_Direction
12 13 15 17 18 20 20 18 18 17 15 13 14 13 12 11 11 11 11 9 1 357 352 346 340 334 328 321 314 311 305 302 305 306 306 302 297 298 297 298 299 308 307
7 3 10 15 14 15 16 16 12 9 10 7 7 7 6 5 5 5 4 2 358 353 348 346 344 338 331 326 318 311 306 300 298 300 298 297 301 299 295 298 297 301 302
0 9 10 9 9 10 10 9 6 3 3 1 1 1 360 359 358 358 357 356 355 352 347 344 340 338 335 325 321 319 307 304 302 306 310 308 313 312 301 296 299 300 300
355 357 358 358 0 1 1 360 359 360 358 355 352 353 353 352 353 352 353 353 351 347 343 344 345 343 340 337 331 325 321 311 307 309 314 314 312 313 303 296 295 300 302
340 342 343 346 348 351 352 352 354 352 352 350 347 345 345 345 347 345 346 346 346 345 345 344 341 340 339 336 331 325 319 312 306 304 305 306 306 306 309 301 295 293 292
327 329 331 335 338 343 345 347 345 341 341 341 340 339 337 336 337 338 338 337 335 334 336 337 334 332 332 331 328 324 318 313 310 309 306 302 301 300 302 301 297 295 293
319 319 321 324 327 332 336 338 338 336 335 332 332 334 334 333 333 333 332 333 331 329 330 330 328 326 326 324 321 318 314 314 309 307 304 299 294 294 295 297 296 294 292
311 313 316 317 319 322 325 327 330 330 331 330 328 329 331 331 329 329 328 330 329 328 328 324 323 322 320 318 316 316 314 311 309 307 302 296 292 291 288 291 293 293 291
308 305 309 315 316 317 319 321 322 324 325 326 324 324 324 324 323 322 321 322 324 324 323 322 318 316 315 314 312 310 311 308 306 307 302 297 294 292 288 288 290 290 289
300 300 303 308 310 311 313 316 317 319 321 322 323 322 321 320 318 317 318 319 319 320 320 318 318 314 311 310 310 307 306 305 303 302 301 298 293 291 288 287 286 287 288
300 303 305 303 305 308 312 313 314 316 316 316 317 317 317 319 320 318 316 316 315 314 315 315 313 310 308 306 306 305 305 304 303 301 298 294 291 289 286 285 286 285 286
300 302 304 305 307 309 310 311 312 313 313 314 314 314 314 315 316 318 317 314 313 312 310 310 309 307 304 303 301 300 301 303 302 299 296 292 287 286 284 284 284 283 284
298 300 300 301 304 306 307 308 309 310 311 312 313 312 312 312 313 314 314 314 313 311 308 307 306 304 302 302 300 298 298 299 300 297 293 291 288 285 281 281 282 281 281
297 298 298 299 301 301 301 303 305 305 306 308 309 309 308 308 309 310 310 311 311 310 309 307 305 302 300 299 298 298 297 297 297 296 292 289 288 287 282 279 279 280 280
292 294 296 297 298 298 300 301 302 303 303 304 306 307 308 308 306 306 306 307 307 306 306 304 304 302 299 297 297 296 295 295 295 294 292 289 287 285 284 282 279 278 278
288 291 293 294 295 296 297 298 300 300 302 304 305 306 307 307 307 306 303 304 305 304 303 302 302 300 298 297 296 295 294 294 293 292 290 288 286 285 282 281 282 279 278
288 289 289 291 293 295 295 296 298 299 301 302 302 303 304 303 304 304 302 302 303 303 303 303 301 299 297 295 295 295 294 293 292 291 289 287 286 285 283 280 280 279 277
288 288 290 290 292 293 295 296 296 299 300 301 300 302 302 301 303 305 303 302 301 301 301 301 300 299 298 296 295 295 295 293 292 290 288 286 285 284 283 280 279 280 279
287 287 288 289 290 292 294 296 297 298 298 300 299 300 301 303 304 304 302 302 302 300 300 301 299 299 299 297 296 295 294 293 292 290 287 285 285 283 282 280 279 278 278
285 286 287 288 290 292 294 295 296 296 297 297 297 298 300 302 303 303 303 302 302 300 299 300 299 298 299 298 297 296 294 293 292 290 287 285 283 282 280 279 278 278 278
284 285 287 289 291 293 294 294 295 296 296 297 297 298 299 301 302 302 302 302 302 301 300 300 298 298 297 298 298 296 295 294 292 289 287 285 283 281 279 278 278 279 278
283 285 287 288 290 292 293 295 295 296 296 296 296 296 298 299 301 301 302 302 302 301 301 300 299 298 297 297 297 296 295 295 293 291 288 287 285 282 280 278 278 279 279
284 285 287 288 289 290 291 293 294 295 295 295 296 295 297 298 300 301 301 302 302 300 301 301 300 299 299 298 296 295 295 294 294 292 290 288 285 283 281 279 278 279 279
285 285 286 288 289 290 290 291 292 293 294 295 296 296 297 298 299 299 300 301 301 300 301 301 301 301 300 300 299 297 296 295 294 292 290 287 285 283 281 279 278 278 279
285 285 286 288 289 290 290 291 290 291 293 294 295 296 297 297 298 298 299 300 300 301 301 301 301 301 300 300 299 298 297 296 294 292 289 286 284 282 281 280 280 279 278
287 287 288 288 289 289 289 290 291 292 292 294 294 295 295 296 297 298 298 299 300 300 300 301 302 301 301 300 299 298 298 297 295 293 291 288 285 284 281 281 280 279 279
Height
5913 5912 5910 5909 5908 5906 5905 5904 5902 5901 5900 5898 5897 5896 5894 5893 5891 5889 5888 5886 5885 5884 5883 5882 5881 5880 5879 5878 5877 5876 5875 5874 5874 5873 5873 5872 5872 5871 5870 5870 5870 5870 5869
5914 5912 5911 5910 5909 5907 5906 5905 5903 5902 5900 5899 5897 5896 5895 5893 5892 5890 5888 5887 5885 5884 5883 5882 5881 5879 5878 5876 5875 5874 5873 5872 5872 5872 5871 5870 5870 5870 5869 5869 5869 5868 5868
5914 5912 5912 5911 5909 5908 5907 5905 5904 5903 5901 5899 5898 5896 5895 5893 5892 5890 5889 5887 5885 5884 5882 5881 5880 5878 5877 5875 5874 5872 5872 5871 5870 5870 5870 5869 5869 5868 5868 5867 5867 5867 5867
5914 5913 5912 5911 5910 5909 5907 5906 5904 5903 5901 5900 5898 5897 5895 5893 5892 5890 5889 5887 5885 5884 5882 5881 5879 5877 5876 5874 5873 5872 5870 5869 5868 5868 5868 5868 5867 5867 5866 5866 5865 5865 5865
5914 5913 5912 5911 5910 5909 5907 5906 5904 5903 5901 5900 5898 5897 5895 5893 5892 5890 5888 5887 5885 5883 5882 5880 5878 5877 5875 5873 5871 5870 5869 5868 5867 5867 5866 5866 5865 5864 5864 5864 5863 5863 5863
5913 5912 5912 5911 5910 5909 5907 5905 5904 5903 5901 5899 5898 5896 5894 5892 5891 5889 5888 5886 5884 5882 5880 5879 5877 5875 5874 5872 5870 5869 5867 5866 5865 5865 5864 5863 5863 5862 5862 5861 5861 5861 5861
5912 5911 5911 5910 5909 5908 5907 5905 5904 5902 5900 5898 5897 5895 5893 5891 5889 5888 5886 5885 5883 5881 5879 5877 5876 5874 5872 5871 5869 5867 5866 5865 5864 5862 5861 5861 5860 5860 5859 5859 5859 5859 5858
5911 5910 5909 5908 5907 5906 5905 5904 5902 5901 5899 5897 5895 5893 5891 5890 5888 5886 5884 5882 5880 5878 5877 5875 5874 5872 5870 5868 5867 5865 5864 5862 5861 5860 5859 5858 5857 5857 5857 5857 5857 5857 5856
5910 5908 5907 5906 5905 5904 5903 5902 5900 5899 5897 5895 5893 5891 5889 5888 5886 5884 5882 5880 5878 5876 5874 5872 5871 5869 5867 5866 5864 5863 5861 5859 5858 5857 5856 5855 5854 5854 5854 5854 5854 5854 5854
5908 5906 5905 5904 5904 5902 5901 5900 5898 5897 5895 5893 5891 5889 5887 5885 5883 5881 5879 5877 5875 5874 5872 5870 5868 5866 5864 5862 5861 5860 5858 5856 5855 5854 5853 5852 5851 5850 5850 5850 5850 5850 5850
5906 5904 5903 5902 5901 5900 5899 5897 5895 5894 5892 5891 5889 5886 5884 5882 5880 5878 5876 5874 5872 5870 5868 5866 5864 5863 5861 5859 5858 5856 5855 5853 5852 5850 5849 5849 5848 5847 5847 5847 5846 5846 5846
5903 5902 5901 5900 5899 5897 5896 5894 5893 5891 5889 5887 5885 5883 5881 5879 5877 5875 5872 5870 5868 5866 5864 5862 5860 5859 5857 5856 5854 5853 5851 5849 5848 5846 5845 5845 5844 5843 5843 5842 5842 5841 5841
5901 5900 5898 5897 5896 5894 5893 5891 5889 5887 5886 5884 5882 5879 5877 5875 5873 5871 5868 5866 5864 5862 5860 5858 5856 5854 5853 5851 5849 5848 5847 5845 5844 5842 5841 5840 5839 5838 5838 5837 5837 5836 5836
5898 5897 5896 5894 5893 5891 5889 5887 5886 5884 5882 5880 5878 5875 5873 5871 5869 5866 5864 5862 5859 5857 5855 5853 5851 5849 5847 5846 5844 5843 5841 5840 5838 5837 5836 5835 5834 5832 5831 5831 5831 5830 5830
5894 5893 5892 5890 5889 5887 5885 5883 5881 5879 5877 5875 5873 5871 5868 5866 5863 5861 5859 5857 5854 5852 5850 5847 5845 5843 5841 5840 5838 5836 5835 5834 5833 5831 5830 5829 5827 5826 5825 5825 5824 5823 5823
5889 5888 5887 5886 5884 5883 5881 5879 5876 5873 5872 5870 5868 5865 5863 5860 5857 5855 5853 5851 5849 5846 5844 5842 5839 5837 5835 5833 5831 5830 5828 5827 5826 5824 5823 5822 5821 5820 5819 5818 5817 5816 5816
5884 5883 5882 5881 5879 5877 5875 5873 5871 5869 5866 5864 5861 5859 5856 5854 5851 5849 5847 5844 5842 5840 5837 5835 5832 5830 5828 5826 5824 5822 5820 5819 5817 5816 5815 5814 5813 5812 5812 5811 5810 5809 5808
5879 5878 5876 5874 5873 5871 5869 5867 5864 5862 5860 5857 5854 5850 5849 5847 5844 5842 5840 5837 5835 5832 5830 5828 5825 5823 5821 5818 5816 5814 5812 5810 5808 5807 5806 5805 5805 5804 5804 5803 5802 5801 5800
5873 5872 5870 5868 5866 5865 5863 5860 5858 5855 5853 5851 5848 5845 5842 5840 5837 5835 5832 5830 5827 5824 5822 5820 5818 5815 5813 5810 5808 5805 5803 5801 5800 5798 5797 5796 5796 5795 5794 5794 5793 5793 5792
5867 5865 5863 5862 5860 5858 5856 5854 5851 5849 5846 5844 5841 5838 5836 5833 5830 5827 5825 5822 5819 5817 5814 5812 5810 5808 5805 5802 5800 5797 5795 5793 5791 5789 5787 5786 5786 5785 5784 5784 5784 5784 5783
5859 5858 5857 5855 5853 5851 5849 5847 5844 5841 5839 5836 5834 5831 5828 5825 5822 5820 5817 5814 5812 5809 5807 5804 5802 5799 5797 5794 5791 5788 5786 5784 5781 5780 5778 5777 5776 5776 5775 5774 5774 5773 5773
5852 5851 5850 5848 5846 5844 5842 5839 5837 5834 5831 5829 5826 5823 5821 5818 5815 5812 5809 5806 5804 5801 5798 5796 5793 5790 5788 5785 5782 5779 5776 5774 5772 5770 5769 5767 5766 5766 5765 5764 5764 5763 5763
5844 5843 5842 5840 5838 5836 5834 5832 5829 5826 5824 5821 5818 5816 5813 5810 5807 5804 5801 5799 5796 5793 5790 5787 5784 5782 5779 5776 5773 5770 5767 5764 5762 5761 5759 5758 5757 5756 5755 5754 5754 5753 5752
5836 5835 5834 5832 5830 5828 5826 5823 5821 5818 5816 5813 5810 5808 5805 5802 5800 5797 5793 5790 5787 5784 5781 5778 5776 5773 5770 5767 5764 5761 5758 5755 5753 5751 5750 5748 5747 5746 5745 5744 5744 5743 5742
5827 5826 5825 5823 5821 5819 5817 5815 5812 5810 5807 5805 5802 5799 5797 5794 5791 5788 5785 5782 5779 5775 5772 5769 5767 5764 5760 5757 5754 5751 5749 5746 5744 5741 5740 5738 5737 5736 5735 5734 5733 5733 5732
5819 5817 5816 5814 5812 5810 5809 5806 5804 5801 5799 5796 5794 5791 5788 5786 5783 5780 5777 5774 5771 5767 5764 5760 5757 5754 5751 5748 5745 5742 5740 5737 5734 5732 5730 5728 5727 5726 5725 5724 5723 5722 5722